Home   Weather   Geneva   Past weeks
Flag for Switzerland

Past Weather in Geneva, Geneva, Switzerland — Yesterday and Last 2 Weeks

Now
50 °F

Passing clouds.


Feels Like: 46 °F
Forecast: 52 / 35 °F
Wind: 9 mph from Southwest

Location: Geneve-Cointrin

Current Time: Feb 18, 2019 at 7:57:52 pm

Latest Report: Feb 18, 2019 at 7:00 pm


Visibility: 16 mi

Pressure: 30.16 "Hg

Humidity: 60%

Dew Point: 37 °F

Location of GenevaLocation

Past Weather in Geneva — Graph

°F

Geneva Temperature Yesterday

Maximum temperature yesterday: 53 °F (at 5:00 pm)
Minimum temperature yesterday: 28 °F (at 8:00 am)
Average temperature yesterday: 39 °F

High & Low Weather Summary for the Past Weeks

 TemperatureHumidityPressure
High56 °F (Feb 18, 3:00 pm)99% (Feb 8, 5:00 am)30.72 "Hg (Feb 8, 5:00 am)
Low26 °F (Feb 6, 1:00 am)41% (Feb 18, 3:00 pm)29.70 "Hg (Feb 10, 3:00 pm)
Average37 °F78%30.36 "Hg
* Reported Feb 3 6:00 pm — Feb 18 6:00 pm, Geneva. Weather by CustomWeather, © 2019

Note: Actual official high and low records may vary slightly from our data, if they occured in-between our weather recording intervals... More about our weather records

Advertising

Geneva Weather History for the Previous 24 Hours

Scroll right to see more
 ConditionsComfort  
Time TempWeatherWind HumidityBarometerVisibility
6:00 pm
Mon, Feb 18
53 °FCool.7 mph53%30.14 "HgN/A
5:00 pm55 °FCool.8 mph46%30.12 "HgN/A
4:00 pm56 °FPassing clouds.9 mph45%30.13 "Hg16 mi
3:00 pm56 °FRefreshingly cool.10 mph41%30.13 "HgN/A
1:00 pm52 °FPassing clouds.5 mph53%30.18 "Hg16 mi
12:00 pm50 °FCool.3 mph60%30.22 "HgN/A
11:00 am45 °FQuite cool.5 mph67%30.25 "HgN/A
10:00 am40 °FSunny.3 mph74%30.27 "Hg11 mi
9:00 am33 °FChilly.1 mph93%30.30 "HgN/A
8:00 am31 °FChilly.1 mph94%30.30 "HgN/A
7:00 am31 °FFog.1 mph92%30.30 "Hg9 mi
6:00 am29 °FChilly.2 mph93%30.31 "HgN/A
5:00 am29 °FChilly.1 mph95%30.32 "HgN/A
4:00 am29 °FChilly.1 mph92%30.32 "HgN/A
3:00 am30 °FChilly.2 mph90%30.34 "HgN/A
2:00 am31 °FChilly.2 mph89%30.34 "HgN/A
1:00 am31 °FChilly.1 mph90%30.33 "HgN/A
12:00 am33 °FChilly.3 mph86%30.32 "HgN/A
11:00 pm
Sun, Feb 17
36 °FChilly.2 mph82%30.32 "HgN/A
10:00 pm37 °FClear.1 mph81%30.31 "Hg10 mi
9:00 pm39 °FChilly.2 mph74%30.30 "HgN/A
8:00 pm41 °FQuite cool.1 mph67%30.29 "HgN/A
7:00 pm43 °FClear.1 mph62%30.28 "Hg12 mi
Weather by CustomWeather, © 2019

See weather overview